Theta_e
302 302 302 303 303 303 304 304 304 304 303 300 297 297 292 288 290 300 305 306 301 288 279 283 283 286 286 291 290 291 290 289 290 288 288 288 288 287 287 288 285 286 286 285 285 287 283 287 287 288 290 290 294 296 296 297 296 291 290 293 292 306 281 282 282 282 283 286 288 291 293 292 289 290 288 286 284 283 282 277 278 278 280 279 277 275 275
302 302 302 303 303 303 304 304 304 304 304 300 299 291 289 290 292 298 304 303 296 290 283 282 278 282 288 288 289 291 290 289 287 287 287 287 287 286 286 287 288 287 287 286 286 289 279 287 288 287 291 290 294 296 298 299 297 293 292 290 295 285 284 284 279 276 278 279 283 285 287 288 284 286 287 288 288 287 283 283 281 279 281 279 278 271 276
302 302 302 303 303 303 303 304 304 304 305 304 299 292 290 290 294 295 297 298 298 290 284 283 278 281 284 284 284 287 288 290 290 289 288 289 288 287 286 288 288 288 288 287 287 288 285 283 288 289 289 290 292 294 296 301 299 303 303 303 296 287 285 284 278 275 272 271 271 274 277 280 284 287 287 288 286 285 284 281 281 278 279 281 275 271 281
301 302 302 303 303 303 303 304 304 304 304 304 299 294 292 290 285 288 292 290 293 290 289 286 285 283 284 280 284 286 283 287 290 290 289 289 289 287 288 286 288 286 285 284 284 284 287 286 285 285 285 287 291 292 294 298 301 306 307 302 296 285 285 283 280 279 276 276 277 281 285 283 282 284 285 286 286 284 281 279 277 278 277 279 278 283 288
301 302 302 303 303 303 303 304 304 304 304 303 299 294 292 289 284 282 285 287 285 287 285 288 287 285 284 279 284 282 284 285 288 290 286 290 288 288 286 286 284 283 283 281 282 283 284 285 284 284 286 286 289 290 294 295 302 306 303 302 291 286 283 285 284 286 286 286 284 285 288 284 285 283 283 286 286 283 281 280 280 280 282 276 279 284 289
301 302 302 303 303 303 304 304 304 304 303 304 298 292 289 286 285 286 288 286 282 284 283 285 285 287 287 283 285 283 282 282 281 286 289 289 289 285 284 284 285 284 284 283 279 280 281 281 279 284 284 283 286 291 294 293 298 301 295 297 291 286 283 286 285 286 288 288 286 287 287 285 284 284 283 283 285 285 283 283 284 282 277 277 281 285 287
301 301 302 303 303 303 304 304 304 304 302 302 295 289 289 287 286 288 291 285 282 282 287 286 285 284 286 283 285 281 282 281 285 285 285 285 286 285 278 282 284 284 284 282 281 280 277 277 280 282 281 282 283 284 288 293 292 294 292 293 291 287 283 283 287 285 286 288 287 286 285 284 284 283 283 284 284 285 285 284 284 283 282 283 288 289 290
301 301 302 303 303 303 304 304 304 303 301 300 294 291 288 287 285 288 287 285 285 285 284 283 281 281 286 281 283 284 282 282 284 286 285 280 283 287 283 284 284 284 284 281 279 282 282 282 278 282 282 281 283 283 285 286 287 289 291 294 292 289 284 289 286 283 284 287 288 287 284 283 281 283 284 284 284 285 286 284 288 291 291 292 293 292 291
301 301 302 303 303 303 304 304 304 303 301 296 292 292 290 290 289 288 287 283 282 286 281 281 279 277 279 279 282 285 283 283 285 284 288 285 283 285 284 285 284 283 284 283 284 284 284 283 284 284 283 279 284 283 283 288 284 286 288 289 289 286 284 288 284 283 282 286 286 286 286 283 282 282 284 284 284 284 286 286 288 287 288 291 291 289 287
301 301 302 302 303 303 304 304 305 304 301 294 290 291 292 291 292 287 282 279 285 281 280 279 279 278 279 282 282 283 284 285 284 278 283 287 287 287 287 285 284 280 282 282 284 286 286 286 287 287 287 287 286 287 289 290 286 284 287 288 286 285 284 283 283 282 280 286 287 286 285 283 281 280 284 285 286 287 289 289 290 291 292 289 287 288 292
301 301 302 302 303 303 304 304 304 304 300 290 287 291 291 291 291 286 282 281 278 279 278 279 278 284 283 284 283 284 283 283 284 281 279 286 287 288 287 285 283 280 281 285 289 288 289 289 288 286 286 286 286 286 287 287 287 287 288 285 287 286 285 282 285 281 280 283 283 286 283 277 278 286 290 288 286 287 287 286 288 291 290 286 289 293 293
301 301 302 302 303 303 304 304 304 305 303 298 293 291 292 290 287 281 276 279 279 279 279 281 281 282 282 284 284 283 283 283 284 286 283 283 285 287 286 284 283 279 284 289 289 289 289 289 289 286 286 286 286 287 289 288 289 290 290 288 284 284 282 283 284 281 281 282 283 281 277 279 286 291 290 290 290 289 288 289 290 290 292 295 294 293 292
301 301 301 302 303 303 304 304 305 305 305 299 295 293 294 294 292 282 279 280 278 279 278 282 283 283 284 283 283 283 283 283 284 285 285 285 285 286 288 286 283 285 289 289 288 286 285 284 284 284 287 285 287 288 289 289 288 289 290 291 288 282 282 281 281 282 281 278 277 274 275 284 288 290 289 291 292 289 288 287 290 291 291 292 290 290 290
301 301 301 302 302 303 304 304 304 305 305 301 293 291 291 292 288 283 278 278 280 279 280 280 279 282 282 282 282 282 282 283 283 283 284 286 285 286 287 288 288 290 289 289 285 285 282 280 278 276 281 280 281 282 287 288 289 287 287 288 290 288 283 282 281 283 277 277 276 278 284 284 285 284 285 286 283 285 284 282 286 291 292 292 289 289 289
300 300 301 301 302 303 303 304 305 305 305 303 294 291 291 292 288 286 283 283 279 280 277 278 279 281 282 282 282 279 278 278 281 280 284 285 285 288 288 289 289 289 289 288 283 282 280 279 279 277 279 275 273 278 283 283 288 289 287 287 289 287 285 283 281 279 279 277 277 278 277 276 280 285 289 292 292 291 291 287 285 291 293 294 291 289 289
300 300 300 301 302 303 303 304 304 305 305 304 292 292 293 294 289 288 281 279 278 276 280 283 284 283 281 281 282 282 279 275 278 278 279 280 282 285 287 288 289 290 288 284 282 281 280 280 275 272 274 275 276 278 278 282 281 289 287 288 288 287 286 282 281 280 277 275 274 273 273 277 283 284 287 290 291 291 291 285 283 289 292 293 292 289 289
299 300 300 301 302 303 303 304 304 305 305 304 294 292 295 294 292 283 281 280 281 278 278 283 283 282 278 278 279 280 280 279 280 277 275 278 281 282 285 288 288 289 286 280 281 278 277 276 277 278 276 280 279 277 279 278 276 279 286 285 284 284 281 280 280 276 277 275 276 276 280 279 284 286 287 289 290 292 288 279 280 288 291 293 292 289 289
299 299 300 301 301 302 303 304 304 305 304 305 296 291 293 294 289 286 284 280 276 278 283 283 284 279 281 280 280 282 281 279 278 278 278 278 279 279 283 285 285 287 288 280 279 276 274 272 275 274 277 283 282 279 274 277 276 276 279 278 278 276 278 280 275 274 276 278 276 277 279 283 286 286 287 288 290 290 279 276 283 289 291 293 292 291 291
299 299 300 300 301 302 303 303 304 304 305 304 297 290 292 293 293 287 284 281 280 279 281 282 286 283 286 286 284 284 284 283 281 277 275 273 281 283 284 284 286 281 284 277 278 276 274 275 278 277 275 278 281 276 281 277 276 278 278 276 277 277 276 277 277 276 274 273 274 275 277 282 286 287 287 288 287 280 278 285 289 289 291 292 292 290 291
299 299 300 300 301 302 302 303 304 304 305 305 297 290 293 292 295 290 285 281 277 281 282 286 287 286 286 286 282 281 281 280 278 279 276 275 280 282 279 277 282 282 280 280 277 278 272 275 276 277 274 276 280 280 276 278 281 280 279 279 275 276 274 274 274 275 274 274 274 274 274 282 288 286 286 288 283 282 287 287 289 291 292 291 290 290 291
299 299 300 300 301 302 302 303 304 304 305 305 300 290 293 294 295 294 287 285 282 281 282 285 287 287 285 286 287 286 283 283 282 281 279 279 281 277 272 273 278 279 278 277 275 276 276 275 277 276 279 278 280 278 274 271 278 283 283 281 280 281 274 274 274 280 273 274 275 275 281 285 288 286 281 284 286 289 289 288 287 289 290 290 290 290 291
299 299 299 300 301 302 302 303 304 304 305 305 301 289 290 293 293 296 292 288 282 281 285 287 287 287 286 288 289 287 289 287 289 287 285 280 281 281 280 278 281 281 283 279 277 276 279 278 278 273 274 276 280 274 275 268 271 279 281 281 276 283 279 277 274 280 274 276 280 286 286 287 288 287 287 288 289 291 291 291 290 288 289 291 289 289 291
299 299 299 300 301 301 302 303 303 304 304 305 299 290 290 293 294 295 287 287 285 287 286 285 284 287 291 291 290 289 286 288 288 286 282 282 280 280 282 282 280 283 284 282 282 279 279 276 274 278 275 277 275 274 278 274 272 277 276 281 281 285 283 281 281 280 283 285 285 287 287 288 288 289 289 289 290 291 291 291 289 290 291 291 289 290 290
299 299 299 300 300 301 302 303 303 304 304 305 301 290 291 291 295 289 289 286 282 283 284 285 283 281 282 287 290 288 290 290 291 290 287 286 279 277 278 281 283 282 279 283 280 283 278 276 279 278 274 277 276 272 270 273 273 278 275 276 278 282 280 279 279 281 277 275 284 284 285 286 288 288 289 290 290 290 290 290 290 291 292 291 292 291 291
299 299 299 300 301 301 302 303 303 304 303 304 300 294 293 291 291 290 286 284 282 276 279 278 279 288 289 289 289 289 290 290 292 289 287 285 285 281 282 286 287 285 284 285 280 279 276 275 279 274 274 280 278 273 276 274 275 277 271 275 277 280 282 280 278 277 274 277 282 283 285 286 288 288 289 289 290 291 292 292 291 291 292 292 292 293 292
299 299 300 300 301 301 302 303 303 303 303 304 299 291 290 291 291 290 290 288 282 280 279 276 282 288 287 290 290 290 291 291 290 290 290 290 287 287 287 287 285 284 283 282 280 276 273 274 275 275 276 277 278 274 276 279 279 278 277 278 280 280 283 275 278 277 280 280 282 282 284 286 287 288 288 289 290 291 292 292 292 292 291 292 292 293 292
299 299 300 301 301 302 303 303 303 303 303 303 295 293 291 290 291 293 291 286 283 280 279 280 280 285 289 287 291 289 291 290 289 289 289 288 286 285 285 283 281 281 280 279 279 276 276 275 275 279 279 278 278 279 279 278 277 273 274 279 279 279 279 280 278 276 272 275 279 280 276 276 283 286 286 287 289 291 290 291 291 291 291 290 290 289 290
299 300 300 301 301 302 303 303 303 303 303 300 294 293 289 290 292 291 288 288 287 281 279 276 281 285 287 289 290 287 292 291 288 288 288 288 287 287 286 283 281 281 279 278 279 279 274 277 279 275 274 278 277 277 278 278 277 276 279 280 280 280 281 277 271 270 273 278 281 280 280 280 282 284 285 285 286 288 288 289 289 290 290 289 288 287 286
299 300 301 301 302 303 303 303 303 303 303 298 288 289 289 291 290 294 295 292 287 283 279 281 282 282 280 285 290 288 288 290 289 288 288 287 288 286 285 284 281 278 279 277 276 275 274 276 274 278 279 280 278 276 274 272 268 271 278 280 279 280 281 282 283 279 283 282 283 282 281 283 284 284 284 285 285 286 285 284 284 285 286 287 287 287 286
299 300 301 302 303 303 304 303 303 303 301 287 287 282 283 290 288 293 298 295 287 285 281 277 277 281 283 286 288 288 288 289 288 289 288 287 287 286 285 284 284 283 281 279 278 276 277 277 274 277 281 281 278 272 269 273 271 278 278 278 280 281 282 282 282 283 283 284 283 282 282 284 284 284 285 284 286 285 284 283 282 283 283 283 284 284 285
300 301 302 302 303 304 304 304 303 302 297 286 284 281 277 279 287 292 298 294 289 285 279 279 280 280 282 287 286 288 287 289 287 286 286 285 284 284 285 283 283 283 279 278 278 278 275 276 275 279 279 284 275 270 275 272 271 277 281 280 280 281 283 282 282 284 285 284 285 286 286 286 285 285 287 287 288 287 285 285 288 289 285 285 282 283 283
300 301 302 303 303 304 304 304 304 300 286 287 287 286 283 285 287 292 299 298 291 287 281 278 279 278 277 281 286 288 288 287 285 283 283 286 286 284 284 285 283 282 285 276 277 277 277 276 276 279 279 282 280 273 275 272 270 277 280 280 280 280 281 283 283 283 284 286 286 285 283 284 285 285 284 285 284 283 282 282 282 283 286 283 281 282 282
300 301 302 303 303 304 304 304 304 299 291 293 298 298 299 300 301 301 298 294 291 284 279 276 276 277 277 282 285 288 288 282 283 281 284 285 284 281 281 283 281 281 289 282 278 277 278 274 275 278 280 277 272 272 274 270 278 279 279 281 280 280 282 283 283 283 283 284 283 281 280 281 283 284 285 285 284 283 282 281 281 281 281 282 282 282 283
301 301 302 303 304 304 304 304 303 301 297 289 287 289 293 301 295 301 292 290 287 283 278 278 275 277 278 281 284 285 287 283 282 280 279 285 282 280 280 280 282 280 281 280 278 277 277 279 277 274 275 275 271 271 272 278 279 279 279 279 280 279 280 281 281 281 281 281 282 284 284 284 283 284 283 283 283 282 283 281 281 282 281 281 281 282 281
301 301 302 303 304 304 303 300 291 292 289 290 289 287 287 302 302 300 296 290 283 280 277 278 274 273 277 275 272 280 284 283 280 281 280 282 283 284 281 278 277 278 280 279 274 273 274 277 278 274 275 273 270 270 269 276 280 280 280 281 281 280 281 283 283 281 281 281 281 281 282 283 284 283 283 282 282 281 281 280 280 280 281 281 280 280 280
301 302 303 303 303 300 292 295 291 286 284 286 290 298 303 304 300 291 290 288 286 277 273 276 273 273 272 271 274 281 287 282 281 279 281 279 280 282 278 276 275 278 279 275 275 273 275 280 276 273 269 271 273 274 277 276 279 280 279 279 280 280 283 282 282 281 281 281 281 281 282 281 281 281 281 281 281 280 280 281 280 279 279 280 280 280 280
301 302 303 299 291 291 285 285 289 289 288 289 294 301 303 300 294 292 289 290 291 288 280 273 276 278 275 275 274 278 280 278 279 276 280 278 276 276 275 273 274 278 273 273 272 274 278 281 273 269 268 270 276 279 278 278 279 280 282 279 280 280 280 280 281 280 281 281 282 280 280 279 280 279 281 282 281 280 281 282 280 281 281 280 280 280 281
302 301 290 289 284 281 283 283 288 292 301 301 301 292 288 288 285 281 281 280 284 288 279 280 277 280 278 277 277 283 280 277 279 278 277 276 277 277 275 276 276 277 270 270 275 281 273 272 269 271 274 276 277 278 279 280 279 278 279 280 280 280 281 280 281 281 281 281 282 283 281 280 281 280 281 282 280 281 280 280 280 280 280 281 281 281 280
296 288 286 282 281 282 281 288 292 301 294 294 288 285 282 280 278 279 278 278 278 280 278 277 278 278 277 278 280 282 283 277 272 274 274 280 276 275 276 272 276 272 269 271 275 277 272 270 266 267 272 275 279 281 279 280 280 280 281 280 281 280 280 280 282 282 282 281 281 281 282 281 281 282 280 281 281 280 279 279 279 280 280 280 280 280 280
287 288 283 281 282 284 289 292 297 294 290 285 279 279 279 279 278 278 277 277 277 276 275 278 281 279 280 280 278 279 284 280 274 275 274 276 281 275 276 273 275 270 267 266 273 275 269 269 266 266 271 273 279 280 280 280 281 282 280 281 281 281 281 282 282 281 282 281 282 281 280 280 281 280 280 280 281 282 283 281 280 279 279 279 279 280 282
285 284 284 284 286 284 287 290 286 282 281 279 278 277 276 277 278 277 274 273 275 278 279 280 278 281 281 278 279 278 282 283 281 278 274 274 279 276 271 273 274 269 266 269 274 269 265 266 265 264 270 274 276 280 280 281 281 282 282 281 282 280 281 281 282 282 283 282 282 282 281 281 281 280 281 280 280 280 280 281 281 280 279 280 280 281 281
287 287 287 288 290 289 287 285 280 281 279 279 276 274 274 276 277 277 275 274 275 274 281 278 279 279 282 283 283 281 281 283 277 274 274 275 279 273 273 272 271 267 268 272 272 265 266 267 266 268 270 276 276 278 280 281 282 281 283 281 281 281 281 282 283 282 282 283 282 281 281 281 280 280 281 281 281 280 280 281 282 280 280 281 281 280 280
298 296 291 284 281 281 280 279 279 277 274 273 271 272 273 274 275 274 276 275 275 278 280 284 283 282 284 283 282 283 281 284 283 278 273 274 277 273 270 268 270 269 273 272 269 265 265 265 265 268 274 277 280 280 280 280 279 279 280 280 281 280 281 281 283 283 282 281 282 281 281 280 280 280 281 281 281 282 281 281 281 280 280 280 281 281 281
294 292 284 278 281 280 280 277 280 279 274 272 271 270 272 272 274 272 273 277 277 279 281 281 281 279 277 282 281 280 279 282 281 276 276 275 274 272 269 269 271 273 273 266 266 268 268 264 267 274 276 277 280 280 279 280 280 280 281 282 281 281 281 282 283 283 283 282 281 281 281 281 282 283 282 281 281 283 282 281 280 281 280 280 280 280 280
284 280 275 277 275 277 278 272 275 274 272 273 273 270 270 272 271 267 275 277 280 282 280 279 279 280 280 281 279 280 279 278 278 275 274 273 270 271 269 271 270 266 268 267 263 262 266 272 275 276 278 280 281 279 278 279 279 281 281 281 281 281 282 282 282 281 281 282 282 282 283 282 282 283 282 282 281 281 282 283 281 281 281 281 281 281 280
279 276 273 273 273 274 273 271 271 273 273 274 273 274 275 276 277 278 278 277 279 281 283 281 281 280 279 279 279 279 275 273 274 276 275 270 269 271 273 273 268 266 264 259 263 266 266 273 273 274 277 279 278 277 278 279 280 280 282 282 282 280 280 281 281 281 281 281 281 282 281 281 282 282 282 282 280 281 281 281 280 281 280 281 281 281 281
282 279 275 274 272 274 275 273 272 274 278 277 276 277 279 280 278 279 281 279 281 281 281 280 280 279 277 277 277 278 275 274 274 275 272 271 272 274 274 272 269 263 263 264 263 263 265 273 273 276 277 277 278 278 279 279 279 280 281 281 281 282 281 281 281 281 281 281 281 281 282 283 282 282 281 283 283 282 282 281 281 282 282 282 281 281 280
279 278 277 274 272 274 275 275 276 277 278 280 279 278 281 280 282 282 282 280 281 281 282 282 282 279 278 278 276 275 275 274 274 275 275 274 274 269 264 265 262 262 262 264 264 267 272 274 275 276 278 279 279 280 281 281 281 280 280 280 280 281 281 281 281 282 280 281 281 281 282 282 282 282 282 283 282 283 282 282 283 282 282 282 281 280 281
280 276 276 273 274 274 277 277 278 278 278 278 279 280 282 283 281 282 282 278 281 281 279 278 276 274 275 276 273 274 275 274 270 272 273 269 267 266 265 264 262 267 268 266 269 272 274 276 278 278 279 280 282 282 280 279 281 280 281 282 282 282 282 282 281 281 281 281 281 281 282 282 281 281 281 281 281 284 283 281 282 282 283 283 283 281 280
280 279 278 275 276 277 277 277 279 277 279 279 279 279 280 281 281 283 280 281 280 279 280 283 279 277 276 275 273 271 272 273 274 273 268 268 266 266 263 263 262 266 271 274 272 274 277 277 279 281 281 281 280 281 281 282 281 281 281 281 282 282 283 282 282 282 281 281 281 282 281 281 281 281 282 284 284 282 282 282 282 282 282 282 283 281 282
280 278 278 275 276 276 278 276 278 274 276 279 279 279 279 281 281 283 281 280 280 278 275 276 276 274 272 270 268 268 273 273 271 270 269 269 268 266 266 268 266 268 273 276 277 275 277 278 279 280 281 280 280 281 281 282 281 282 282 282 282 281 281 281 281 282 282 282 281 281 282 282 283 282 282 282 282 283 284 283 283 282 282 282 283 283 283
275 277 280 279 278 278 279 278 279 279 279 279 280 280 280 283 280 281 281 280 278 278 277 275 275 271 269 270 270 272 276 271 269 271 270 272 269 267 265 265 270 275 276 276 277 278 277 279 280 279 280 281 281 280 280 281 281 281 281 283 282 281 282 282 282 281 281 282 282 281 282 281 281 281 281 283 284 284 284 285 283 281 281 281 281 281 282
Wind_Speed
15 16 17 18 19 19 18 18 17 14 15 5 4 3 1 3 1 2 2 1 0 3 1 1 2 0 2 3 1 1 1 1 2 1 2 2 1 1 2 0 1 1 0 1 2 1 1 1 0 0 0 1 1 6 8 2 5 2 1 1 2 4 1 0 4 5 5 5 2 1 2 1 4 4 2 4 2 3 5 3 3 5 2 1 1 1 3
16 17 17 18 20 19 19 18 18 16 10 5 4 2 1 1 2 3 0 1 1 3 0 2 2 3 4 1 2 2 1 1 3 1 2 0 3 0 1 2 1 1 1 0 1 1 1 0 2 0 0 1 2 6 7 1 2 1 1 1 2 1 2 2 1 2 6 3 5 2 3 4 2 1 3 1 3 3 2 4 1 1 6 5 6 3 2
16 17 18 18 20 19 19 19 18 16 11 7 1 0 1 3 1 1 2 4 2 0 3 2 0 1 0 2 4 5 1 0 1 0 2 1 0 0 0 0 2 1 1 1 0 1 1 1 2 0 0 0 3 7 9 6 3 2 3 3 1 2 0 1 3 5 5 2 2 3 3 1 3 0 4 4 2 7 3 1 1 2 1 4 2 2 3
16 17 18 18 20 20 19 18 16 15 15 2 4 2 1 1 3 3 1 4 2 2 1 1 2 0 0 2 1 1 2 2 3 2 1 1 1 1 1 2 2 2 3 2 2 2 2 2 1 3 3 3 2 2 7 6 3 2 8 4 4 2 1 2 3 3 5 4 3 4 0 2 0 5 4 7 3 2 6 5 4 5 3 4 5 4 6
15 17 18 18 20 21 20 19 18 18 14 9 5 2 0 0 3 2 1 2 3 2 2 1 1 1 2 1 0 2 1 2 2 2 1 2 1 1 3 2 1 2 2 1 1 1 2 3 2 3 3 3 2 7 4 4 9 8 2 5 4 4 4 2 2 3 1 2 3 5 3 2 0 4 6 7 5 3 4 3 3 3 8 3 2 3 10
16 17 18 18 20 20 19 18 18 18 9 12 1 0 1 1 1 2 2 3 2 1 2 1 1 1 0 0 0 1 2 3 1 4 1 1 1 1 1 5 2 0 0 0 0 4 2 2 1 5 2 4 7 3 4 5 7 5 1 3 2 3 3 1 3 2 1 1 2 3 4 2 2 3 4 8 10 4 4 1 1 4 4 4 1 4 4
16 17 18 19 20 21 20 20 18 16 5 6 1 0 0 1 1 0 1 1 1 2 0 2 5 3 1 0 1 1 1 3 1 1 3 3 2 2 0 2 4 3 0 1 0 0 1 1 1 1 3 1 3 4 3 0 7 6 3 4 1 4 1 3 2 1 2 7 6 6 5 1 1 6 7 7 6 5 5 3 0 3 1 1 5 5 5
16 17 18 19 20 21 20 19 16 12 3 2 2 0 1 1 1 1 4 5 4 1 2 2 3 3 3 1 1 1 0 2 4 1 1 1 2 1 1 3 4 4 2 1 2 0 1 0 1 1 1 7 1 2 1 3 5 4 1 0 1 2 2 4 1 1 1 4 6 5 3 3 1 4 9 10 8 4 5 2 4 3 8 5 6 10 8
16 17 18 19 20 21 20 20 17 12 5 1 1 0 1 0 1 1 5 3 3 2 3 2 2 1 3 3 2 1 1 1 0 2 1 1 1 1 1 2 3 1 2 1 0 2 2 3 5 5 3 2 2 1 4 1 4 6 2 2 2 3 0 1 1 2 1 3 6 6 7 2 2 9 14 14 11 9 7 3 4 2 5 6 7 7 5
15 16 17 18 19 20 20 20 17 14 0 3 1 1 0 0 0 3 5 4 4 1 0 1 2 1 1 1 2 0 0 2 0 1 2 1 1 2 2 2 0 2 2 2 2 3 4 6 8 8 8 6 4 4 5 2 1 3 2 1 2 1 4 1 0 4 1 1 1 5 5 5 5 7 10 10 5 4 5 2 5 5 2 5 6 2 7
15 16 17 18 19 20 21 20 17 14 6 1 1 0 1 1 1 2 5 6 2 2 1 3 3 0 0 3 1 1 1 2 2 1 2 1 1 1 2 2 1 2 2 2 1 2 7 7 5 3 4 5 5 3 4 6 5 5 2 1 1 1 4 2 1 2 0 3 3 2 3 2 2 1 3 5 5 8 5 4 6 9 3 1 1 7 11
15 16 17 18 19 20 20 20 18 15 7 1 1 0 2 3 4 5 4 5 0 2 3 1 0 2 3 3 1 0 2 3 2 0 2 2 2 1 3 0 2 3 2 2 4 7 3 0 2 3 2 0 2 4 2 3 6 2 6 4 2 4 3 1 1 2 1 0 1 3 2 2 2 2 4 7 3 5 3 3 9 9 11 5 9 10 10
15 16 17 18 19 20 20 19 18 16 12 0 2 0 1 0 1 3 5 7 2 1 2 0 1 1 1 2 2 1 4 4 3 4 2 2 2 1 1 1 2 3 4 8 6 3 3 1 2 1 1 3 1 4 7 9 9 8 1 4 7 4 5 2 2 1 1 2 1 2 1 1 3 1 6 8 1 7 2 3 8 10 8 5 9 10 12
15 16 17 18 19 20 20 19 19 17 14 3 3 2 1 1 2 2 2 6 1 1 0 1 2 1 1 1 1 4 3 3 3 2 1 2 1 3 3 1 3 3 4 1 2 1 2 4 2 3 5 7 3 3 3 3 2 6 6 2 1 8 4 4 2 1 2 1 2 1 0 1 4 3 7 7 4 7 4 4 4 8 6 4 9 10 12
15 16 17 18 20 20 20 19 18 18 16 9 3 1 1 0 2 3 2 7 4 0 1 0 1 2 0 0 1 4 3 3 6 1 1 1 1 4 2 3 3 6 1 1 1 3 2 2 1 2 3 3 1 1 2 2 3 3 4 3 5 1 4 4 3 1 3 3 2 1 1 1 2 0 4 3 3 5 4 2 2 5 7 5 7 11 11
15 16 17 18 19 20 20 19 19 17 17 12 3 0 2 0 2 5 4 6 7 3 1 1 2 1 0 0 0 2 1 2 1 3 6 3 3 8 2 2 5 1 2 3 1 3 1 1 2 3 1 2 1 1 1 3 2 4 2 5 7 7 7 5 3 1 2 3 3 1 1 1 1 7 8 6 4 4 1 1 3 4 5 6 8 10 9
15 16 17 18 19 19 19 19 18 18 16 14 1 1 3 1 1 2 4 4 6 1 2 1 3 3 3 1 2 1 0 1 1 1 3 4 3 3 11 7 2 2 2 3 5 2 3 4 1 3 0 1 1 1 1 2 1 5 10 7 10 10 6 5 7 4 3 2 3 2 2 2 5 8 9 8 6 2 2 1 2 5 6 5 8 11 8
14 15 17 17 18 19 19 19 18 18 16 15 3 2 2 3 2 3 6 5 6 2 1 6 1 1 2 1 1 1 1 1 2 1 1 3 2 3 4 5 8 4 1 2 1 4 2 2 2 1 1 1 1 1 1 2 3 2 4 2 4 5 4 6 4 2 5 6 1 1 1 1 3 7 12 10 4 2 2 0 3 5 4 6 7 10 6
14 15 16 17 18 18 19 18 18 18 17 16 3 0 2 4 3 4 8 5 5 3 5 2 1 2 0 2 1 1 0 0 0 1 4 4 1 2 2 3 0 4 6 2 4 3 2 0 0 1 2 2 1 1 1 4 2 2 2 4 5 4 1 2 3 5 3 1 3 1 1 1 5 12 10 6 1 3 2 2 2 5 1 8 8 8 6
14 15 15 17 17 18 18 18 18 18 18 19 6 3 1 2 4 2 5 6 3 4 1 1 0 1 1 2 4 3 0 3 1 2 2 0 4 4 1 2 2 2 4 2 3 0 3 1 0 1 3 2 2 2 4 1 0 2 1 0 3 2 2 1 2 1 1 2 3 3 3 1 8 16 4 4 3 1 1 1 3 3 3 9 7 9 9
13 14 15 16 16 17 18 17 18 18 18 18 6 1 3 5 5 5 5 8 6 7 3 2 0 0 2 1 1 4 4 3 0 2 2 5 2 2 3 1 4 1 1 2 2 1 1 1 1 1 0 1 1 2 2 1 2 1 2 1 4 1 2 1 1 1 2 3 3 1 1 6 9 7 4 4 1 2 3 2 3 5 5 5 8 7 9
13 13 14 15 16 17 17 17 17 17 17 18 9 3 3 4 2 3 1 5 5 3 4 1 0 1 3 2 4 5 1 0 2 2 0 2 2 3 3 1 0 1 0 2 2 1 2 1 0 3 3 2 3 3 2 3 3 5 3 3 5 7 3 1 3 2 2 1 1 2 2 3 4 2 1 1 3 3 3 6 5 6 6 5 9 10 10
13 14 14 15 15 16 16 16 16 15 15 16 9 4 2 4 5 3 2 6 2 1 3 3 1 1 2 2 2 4 2 1 4 2 4 1 2 1 1 1 1 1 0 1 0 4 2 4 1 3 3 3 3 2 5 4 2 3 4 4 5 1 1 0 4 3 4 6 3 1 3 4 4 4 3 3 5 5 4 7 10 7 8 7 9 10 11
13 14 14 14 14 15 15 15 14 14 15 14 6 1 1 0 3 3 6 6 4 3 3 5 5 2 1 3 3 3 1 1 1 1 1 3 2 3 1 2 1 1 1 1 2 0 2 3 1 2 4 1 3 4 4 5 2 0 2 3 3 2 1 2 4 0 3 2 4 6 5 4 5 4 5 5 5 4 4 9 9 9 10 11 10 11 11
12 14 14 14 14 14 14 14 13 14 14 14 7 2 2 3 2 3 3 1 1 2 2 3 2 2 3 3 2 1 1 0 2 1 2 2 3 3 1 0 1 1 1 0 1 5 3 3 1 3 5 1 2 2 1 5 2 1 4 2 2 2 1 6 2 3 4 2 1 3 2 1 3 4 5 7 7 8 7 7 7 8 9 10 10 10 10
13 13 13 13 13 13 13 13 13 12 13 13 7 3 4 1 2 1 6 5 3 4 3 1 2 3 3 3 3 2 1 5 3 5 6 2 1 1 3 1 2 3 3 2 3 4 4 4 3 2 5 1 1 3 3 0 4 0 6 0 1 3 3 1 1 4 1 1 1 2 2 7 6 6 5 4 4 7 8 8 9 10 11 9 7 7 8
13 13 13 13 12 12 12 12 11 11 11 10 4 3 3 1 2 3 1 3 5 3 3 2 3 6 4 3 2 3 3 4 5 7 7 9 7 5 5 4 3 4 4 4 3 5 4 3 5 3 2 1 2 2 2 2 3 3 3 2 3 3 4 0 4 5 1 2 2 1 2 1 2 3 3 3 3 5 8 7 8 9 9 8 9 5 4
13 13 13 12 12 11 10 10 10 9 10 6 3 4 2 4 3 2 1 2 2 4 4 1 1 2 3 0 3 3 4 5 5 7 6 7 9 9 8 5 4 4 4 3 4 6 4 7 3 1 1 1 4 3 2 1 3 5 6 3 1 2 3 3 1 4 1 4 5 2 3 4 1 1 2 3 2 3 6 5 5 4 5 7 8 6 4
14 14 13 12 11 10 9 9 9 8 8 4 1 1 3 1 1 3 2 1 6 7 5 1 2 4 2 2 6 6 4 7 7 6 7 7 8 8 7 7 5 3 3 5 4 3 4 1 1 2 1 1 4 1 4 5 3 2 2 4 2 2 2 1 1 4 1 2 4 4 1 3 2 0 0 1 1 4 5 3 3 4 4 3 5 6 9
15 15 14 12 11 9 8 8 8 7 4 1 2 4 4 1 2 4 5 2 2 5 3 2 3 0 3 2 4 4 4 5 5 8 9 7 8 7 6 5 5 3 4 3 3 4 0 2 1 0 2 2 3 1 4 1 3 1 3 2 3 3 1 2 3 1 2 1 3 2 3 3 1 2 0 0 0 3 5 3 2 3 2 2 4 2 0
16 15 14 12 10 8 8 7 6 5 4 4 3 2 2 1 1 2 5 3 1 4 3 4 2 2 2 0 1 6 6 5 5 5 4 3 2 3 2 2 3 3 5 5 5 1 1 4 1 2 2 3 3 3 4 3 2 1 1 3 3 3 1 4 0 1 5 6 4 3 3 3 1 2 2 1 0 1 3 1 1 2 3 4 3 4 4
16 16 14 13 10 8 7 6 6 3 2 1 1 1 1 2 1 4 4 2 0 3 3 3 1 2 1 3 2 1 2 2 2 3 2 3 4 4 5 6 2 3 4 3 1 2 3 1 1 1 3 3 6 4 3 5 5 2 2 3 4 3 3 2 4 3 4 7 8 8 5 1 0 3 2 2 0 2 4 3 2 3 4 4 3 2 2
16 15 14 13 10 8 7 5 4 2 1 2 3 2 2 4 6 5 3 1 5 2 3 4 2 1 1 0 4 3 3 3 7 6 3 3 3 4 3 4 3 4 4 5 4 2 1 1 0 5 2 2 3 2 4 2 1 1 1 2 3 2 2 1 2 2 2 0 2 5 2 3 4 5 4 4 2 2 2 4 3 3 4 4 4 3 1
16 16 14 12 10 8 7 4 2 4 4 3 3 2 2 3 3 4 2 5 4 1 3 2 1 1 1 3 4 3 3 2 1 2 2 3 0 3 2 3 4 4 6 4 1 2 2 4 5 1 4 5 2 4 2 1 1 2 3 2 2 2 1 3 3 2 4 4 4 1 4 3 1 2 3 4 4 3 3 3 4 4 1 3 3 4 3
16 15 14 11 9 6 3 3 3 3 2 0 0 2 2 7 2 2 3 1 2 1 2 2 2 2 1 3 2 3 1 4 3 2 2 2 2 2 1 4 4 5 2 2 4 2 2 1 1 5 1 4 3 2 1 2 1 1 1 0 0 2 4 3 0 2 3 3 3 3 3 3 5 4 4 2 3 2 3 2 1 3 4 3 3 3 2
16 15 13 10 5 2 0 4 5 2 3 1 0 2 5 4 4 3 3 3 3 3 2 1 2 2 3 2 0 1 1 2 1 1 0 0 2 2 4 3 4 1 1 4 1 3 2 2 2 1 2 5 1 1 2 3 2 1 1 3 3 3 1 2 2 1 3 3 5 4 5 3 2 0 2 1 1 2 2 2 1 1 2 4 4 3 1
15 13 8 4 2 2 3 1 2 1 1 3 5 7 5 1 0 1 4 2 2 3 4 3 5 1 2 1 1 3 2 1 3 3 5 4 0 2 4 3 2 2 3 5 4 4 2 2 6 3 3 2 1 2 3 4 2 1 1 3 3 4 3 0 3 4 5 6 6 4 3 3 2 2 1 0 0 1 1 1 3 3 2 5 4 4 5
12 5 1 1 2 2 1 1 0 2 5 6 4 1 4 6 0 2 3 3 2 3 4 4 3 0 1 2 1 2 2 1 1 1 1 1 1 1 0 2 1 1 2 1 1 0 1 6 3 2 0 2 3 2 1 2 3 2 3 3 3 3 4 3 4 4 4 3 2 1 3 2 1 0 1 1 2 3 4 3 3 3 2 3 4 3 3
2 1 3 3 3 1 2 0 2 6 0 0 3 1 1 1 1 1 1 1 2 3 2 4 0 1 2 3 0 2 2 1 2 3 2 2 1 0 2 2 2 3 1 2 1 2 2 3 3 3 1 3 4 2 3 2 1 1 1 2 2 3 2 4 2 4 7 4 2 3 6 4 4 3 2 1 1 2 2 2 2 3 4 3 3 3 2
1 1 1 1 1 1 3 3 7 2 2 1 2 2 0 1 3 0 1 2 2 1 1 2 0 1 0 3 3 2 1 2 1 1 1 1 0 1 1 2 1 3 1 1 1 3 4 1 2 2 0 1 0 2 2 3 2 3 3 2 2 0 2 4 3 1 1 2 2 4 4 3 4 4 4 3 2 1 1 1 2 2 2 3 3 4 6
2 2 2 1 2 1 2 4 3 3 1 1 1 2 1 1 1 0 1 2 1 0 0 1 1 1 1 2 2 1 2 2 1 2 3 2 1 2 3 1 1 2 0 1 1 2 2 2 1 1 4 2 2 1 2 1 1 3 2 3 3 2 1 2 0 0 1 1 1 1 2 3 4 3 4 4 3 3 2 2 1 2 3 3 4 6 3
0 1 1 1 0 1 1 2 3 1 1 0 2 0 0 1 0 2 1 2 1 1 1 1 1 2 1 1 0 2 0 0 1 1 1 1 1 1 1 0 2 2 0 1 1 3 3 1 0 1 3 3 4 1 1 1 2 2 2 3 2 2 3 1 2 1 0 0 1 1 1 2 3 3 4 4 4 3 2 1 2 2 4 4 3 2 3
0 3 3 2 1 2 1 2 2 1 1 1 2 1 1 1 0 2 0 1 1 2 0 0 0 0 0 1 1 0 1 0 0 1 2 0 1 2 2 1 1 2 1 1 2 1 2 1 1 3 4 2 2 1 2 3 3 3 4 3 2 2 1 2 2 2 2 1 0 1 2 2 3 3 2 2 1 1 2 3 3 2 2 3 4 4 4
2 1 1 2 1 1 1 1 0 1 1 1 2 2 1 1 0 1 2 1 0 1 1 4 2 3 1 2 1 1 1 1 4 2 2 0 2 1 1 1 0 2 0 3 2 2 1 2 5 2 2 2 2 1 2 2 2 3 4 3 2 1 2 2 2 1 1 1 1 0 0 1 1 1 2 2 3 4 4 4 3 3 2 2 3 3 3
1 2 2 1 1 1 1 1 2 2 1 1 1 2 3 5 3 2 4 2 1 3 1 3 3 5 2 1 1 1 1 0 2 2 0 0 2 1 1 0 1 2 2 0 1 0 1 0 1 2 3 2 2 2 3 3 2 2 2 4 4 2 1 2 2 2 2 2 1 1 1 1 1 2 2 3 3 2 2 4 2 1 2 3 3 3 3
1 2 1 3 2 2 1 0 0 0 1 2 2 6 5 4 5 3 2 1 3 3 4 3 4 5 3 1 2 1 1 1 2 1 0 2 2 0 0 0 2 2 1 2 1 1 2 2 3 3 3 3 3 3 2 3 2 2 0 2 4 3 2 1 3 3 3 3 3 2 3 2 2 3 4 3 3 3 3 4 2 2 2 2 3 4 3
2 1 2 1 2 1 0 1 1 1 1 2 3 5 5 7 5 3 2 1 4 5 5 1 3 2 4 1 1 1 2 1 2 1 1 1 0 0 2 1 0 0 2 0 1 1 2 3 3 4 3 2 2 2 3 3 1 2 3 3 4 5 5 3 4 3 3 2 2 3 4 4 4 4 3 4 5 4 4 4 3 3 3 3 3 2 2
1 1 1 1 2 1 1 1 0 0 1 0 1 2 1 2 5 3 2 1 4 3 5 4 3 2 4 2 4 1 0 1 2 1 0 1 1 2 2 2 1 1 1 3 4 4 2 3 3 1 1 2 2 2 2 3 2 2 3 4 4 4 4 4 4 4 2 2 3 4 4 5 5 4 4 5 5 6 4 4 4 3 3 3 2 2 3
2 1 1 1 1 2 0 1 3 5 3 3 3 4 4 7 5 3 0 1 3 3 1 2 2 3 1 1 1 1 1 1 2 1 1 2 1 1 1 1 0 0 3 3 1 2 3 2 1 1 2 1 1 1 2 3 2 2 3 3 4 4 4 4 4 4 4 4 4 4 5 4 3 4 3 2 3 7 3 3 4 3 3 3 3 3 3
1 1 1 2 2 1 1 1 5 4 2 2 2 3 2 7 5 0 1 2 1 2 2 3 2 4 0 1 1 2 0 1 1 0 2 1 1 1 2 1 2 3 1 2 3 4 4 3 1 0 2 2 2 2 3 4 3 3 4 4 4 4 4 4 4 4 4 4 4 4 4 4 4 4 4 6 5 3 2 1 3 3 3 3 3 3 4
1 2 0 1 2 2 3 5 7 5 2 3 4 4 2 4 4 3 0 3 2 4 4 2 0 1 1 2 2 1 1 0 2 1 1 1 1 2 2 1 3 6 5 4 4 2 2 2 3 2 1 2 3 4 4 5 4 4 3 3 4 3 3 3 4 4 5 4 3 4 4 4 4 4 4 2 3 3 4 3 2 3 3 3 4 4 4
1 1 0 1 0 1 2 2 3 3 4 5 4 1 2 3 2 1 0 4 4 4 1 1 1 2 2 1 2 1 0 2 1 0 1 1 2 2 2 4 4 5 6 2 2 4 4 3 4 3 3 3 3 3 3 3 3 4 3 4 3 3 3 3 3 3 3 4 3 3 3 3 3 3 1 0 0 1 2 6 2 1 3 3 3 3 4
Wind_Direction
339 336 334 335 337 337 337 337 340 344 344 358 6 329 4 65 153 300 134 192 104 67 51 292 49 220 236 285 283 249 306 199 293 33 342 7 25 349 30 237 22 259 320 344 11 358 318 329 290 278 310 277 311 294 310 188 56 81 352 104 267 81 64 49 290 309 296 310 325 358 92 38 7 0 45 104 176 183 176 163 183 138 156 100 30 192 249
339 337 335 337 338 338 337 338 339 340 348 343 321 31 153 125 122 46 255 68 90 79 26 354 308 286 317 32 272 262 211 38 354 8 308 89 336 61 291 349 105 261 27 76 339 330 59 341 72 354 104 59 310 346 7 312 71 82 231 125 260 93 289 130 359 358 343 344 353 6 346 51 78 313 308 293 103 85 150 104 112 97 222 165 125 229 277
338 335 335 337 338 338 338 338 334 332 326 307 214 225 198 107 9 50 309 0 61 348 189 145 184 283 5 333 359 351 1 252 256 172 330 343 191 73 319 220 293 340 3 330 332 307 117 261 334 65 256 258 311 344 10 2 87 34 201 165 119 90 326 105 195 211 219 228 233 242 281 271 290 347 334 324 127 137 102 160 145 176 271 119 130 231 256
335 333 333 336 337 340 340 338 330 326 328 192 152 215 54 154 131 308 7 5 27 104 114 121 144 133 78 24 298 85 343 327 319 127 221 66 354 117 272 337 56 18 24 10 356 327 339 87 300 24 336 320 338 332 329 34 36 41 64 47 73 117 75 83 144 161 191 212 238 255 237 328 32 299 6 329 338 326 103 101 99 199 198 202 238 172 157
335 333 334 336 339 342 344 342 337 337 335 186 152 130 143 188 103 159 166 342 27 256 3 125 82 247 149 89 305 354 318 267 313 15 104 358 77 358 55 340 44 327 47 320 319 352 328 344 75 14 344 283 277 301 342 351 12 14 75 11 81 73 60 345 114 90 110 267 246 277 282 175 36 24 329 332 346 316 95 153 215 164 106 265 262 192 154
338 336 335 338 340 344 346 346 346 352 6 151 147 61 13 109 244 117 181 126 227 108 300 124 87 50 95 271 50 343 355 3 40 327 18 325 1 118 326 36 72 193 218 133 354 336 355 22 16 338 349 339 330 349 346 44 342 15 38 15 104 126 121 234 114 188 215 251 346 4 43 61 91 50 10 2 339 9 102 172 168 129 140 195 246 142 130
339 336 336 339 341 345 349 352 354 1 49 133 8 88 276 124 143 168 308 158 269 138 157 114 103 86 11 171 42 18 40 1 250 187 318 22 344 59 113 305 332 329 322 147 93 4 51 330 335 72 338 8 331 348 333 348 14 26 22 24 111 87 94 191 209 165 18 14 19 32 54 32 34 29 21 9 3 18 43 51 108 158 212 170 134 112 94
337 337 339 341 342 346 351 355 357 2 17 45 14 215 132 200 120 195 11 88 88 321 53 97 67 64 325 68 310 123 118 357 337 337 117 350 321 359 78 294 322 325 47 107 95 160 159 117 306 270 41 333 95 270 210 303 323 30 22 26 343 104 236 123 248 78 349 9 3 18 43 74 57 13 24 18 4 12 36 47 12 62 77 102 104 100 84
337 339 341 342 343 346 350 357 358 7 143 328 195 288 117 212 163 150 119 65 320 357 23 49 86 61 343 63 290 44 19 322 246 262 210 159 233 323 285 276 330 5 32 53 241 220 185 198 219 226 199 232 231 123 280 117 322 344 357 25 329 70 166 61 101 159 296 2 9 346 347 11 94 23 13 3 360 14 346 355 323 277 139 115 104 105 113
339 341 342 344 345 346 349 355 357 4 21 181 177 61 303 59 320 88 103 87 333 60 23 30 55 34 229 170 264 155 286 273 239 358 294 268 213 189 228 252 104 312 21 302 258 283 253 242 236 226 225 225 224 204 224 243 250 317 4 326 65 97 128 102 134 133 242 307 2 19 348 11 349 12 357 343 321 305 298 297 347 358 339 124 139 176 118
343 344 344 345 346 347 349 352 355 6 21 106 107 21 23 126 153 30 46 96 345 58 77 6 99 187 323 328 294 353 303 11 7 110 281 23 322 223 162 152 130 252 230 239 245 248 260 266 259 230 227 234 236 253 279 281 226 201 185 51 31 76 95 111 309 128 273 336 24 24 48 311 246 333 351 343 326 332 4 0 337 344 7 216 240 121 125
346 346 345 346 347 348 348 350 354 1 16 262 157 150 230 110 76 88 88 94 198 352 97 130 176 306 46 313 189 276 351 346 321 185 228 271 255 317 124 89 107 334 243 237 329 295 271 256 40 96 75 345 265 286 347 4 334 268 195 152 152 116 101 103 165 99 79 340 39 67 222 251 11 252 14 341 304 356 334 32 31 7 4 23 91 105 103
347 347 346 347 348 347 346 347 351 356 4 106 181 352 287 145 122 121 119 109 142 338 63 147 16 268 294 313 41 272 272 266 276 261 245 237 308 336 240 162 177 233 342 332 336 355 80 311 337 107 36 20 24 9 24 12 355 341 130 155 132 150 118 160 39 82 53 36 9 131 251 280 304 11 22 351 14 359 347 267 35 13 9 31 83 93 98
347 347 347 347 347 346 345 345 347 352 0 42 182 229 243 177 107 82 110 99 10 265 185 337 359 9 359 339 64 296 340 349 317 209 262 193 222 260 288 198 216 281 329 332 26 72 53 36 37 16 349 3 5 14 318 353 338 355 347 334 136 143 103 104 94 308 152 156 113 158 96 200 33 7 6 11 344 337 351 351 352 13 5 44 113 104 105
347 347 346 347 347 345 344 344 346 350 358 9 162 276 330 239 127 126 166 90 133 39 56 124 274 274 288 316 55 22 10 316 7 307 270 317 268 222 212 269 308 311 304 163 346 37 130 103 53 69 340 34 95 260 345 5 315 314 354 335 61 46 139 205 103 304 110 130 76 21 29 5 1 163 283 301 278 287 276 271 311 23 21 51 100 109 112
346 347 346 346 345 344 343 344 345 349 356 4 89 302 37 97 99 90 108 132 123 63 346 226 197 176 139 307 350 61 318 316 305 303 331 329 269 322 298 304 307 10 46 70 84 93 58 127 192 85 153 203 243 46 328 348 341 284 33 11 61 32 70 88 105 110 43 42 102 117 128 204 214 307 319 318 332 281 183 244 40 359 20 58 91 91 89
345 345 345 344 345 343 343 344 344 347 354 4 351 348 47 62 181 138 97 49 72 152 237 201 135 106 81 354 8 22 159 327 282 14 337 324 303 283 302 328 312 47 30 79 11 57 39 53 91 124 7 296 114 161 17 33 356 337 335 10 29 39 11 29 48 39 51 121 77 69 35 12 330 318 313 319 302 188 166 40 358 5 357 61 97 99 91
345 344 343 343 343 342 343 343 344 347 352 359 55 69 359 7 113 102 59 97 110 12 298 172 101 51 53 181 199 244 85 24 31 47 205 265 338 339 324 354 344 314 90 93 43 73 67 71 68 97 79 295 139 67 57 276 35 344 328 344 2 358 0 43 92 110 52 70 43 40 348 304 314 316 314 310 282 206 50 142 311 333 350 72 87 94 91
345 343 342 342 342 343 343 342 344 347 351 357 18 30 350 360 8 90 115 81 80 116 263 259 203 142 176 93 113 143 153 125 150 83 320 5 29 248 263 261 65 337 3 113 65 72 98 348 49 114 109 313 28 68 213 37 320 299 359 21 2 15 52 3 56 33 44 81 106 175 215 241 314 324 313 284 340 33 303 294 310 277 68 82 83 79 83
345 342 341 340 341 342 342 342 344 347 351 357 21 126 248 336 353 67 114 114 104 113 283 12 76 109 216 92 51 21 12 15 52 114 124 271 278 11 33 5 321 63 351 57 50 226 97 59 251 117 41 46 29 154 60 71 95 37 328 291 104 314 67 358 38 305 65 40 67 30 31 316 14 323 332 7 77 195 270 298 337 14 99 99 79 94 105
346 343 340 340 340 341 341 342 345 347 352 354 21 72 13 341 19 22 88 125 110 86 352 288 338 175 142 110 176 134 134 78 131 13 242 206 243 83 87 206 262 20 350 57 101 345 127 16 326 115 203 116 290 55 153 188 29 33 71 77 90 308 93 37 11 259 104 33 45 80 265 303 328 356 59 323 349 289 256 169 51 31 46 67 91 88 115
345 341 340 339 339 340 340 342 344 348 353 353 8 85 52 311 9 18 48 90 100 122 180 213 172 233 217 195 180 168 132 175 243 168 193 315 343 102 154 123 215 155 256 122 35 26 3 144 69 54 37 1 18 74 149 69 48 303 349 54 50 330 94 181 132 307 99 118 123 344 345 316 315 11 22 4 5 39 62 82 65 66 39 48 91 96 96
344 342 340 337 338 338 339 341 343 347 353 358 10 88 112 327 337 350 63 61 11 45 10 10 358 331 342 293 205 192 191 164 122 96 137 112 334 13 69 59 332 232 26 134 165 134 164 118 109 153 95 43 123 89 40 104 132 351 51 347 129 188 114 102 74 59 77 69 81 62 348 356 1 21 29 60 60 49 68 90 87 59 68 57 86 95 99
343 340 338 338 336 337 338 338 342 346 351 357 21 110 60 322 321 6 34 66 106 103 1 13 64 354 295 318 341 349 67 23 277 308 161 123 92 319 325 260 194 44 357 277 172 121 190 101 166 125 90 261 91 52 102 43 27 152 63 355 346 318 80 53 104 284 54 3 334 16 338 348 10 28 46 52 58 67 74 82 84 92 90 85 78 86 91
342 339 338 337 336 336 337 337 341 345 350 355 7 78 99 34 10 50 113 101 356 84 135 317 354 240 260 254 264 314 46 149 47 75 63 78 126 131 156 338 161 76 321 334 75 55 40 97 60 55 89 299 104 52 252 112 12 94 70 312 27 18 95 75 70 52 89 147 309 306 299 305 10 12 44 60 61 64 67 80 89 92 88 93 100 97 95
341 336 336 337 334 334 334 334 338 344 349 1 27 74 85 51 305 78 72 72 97 106 96 357 292 315 335 22 37 293 311 40 9 59 49 37 147 147 161 165 35 28 100 86 79 100 108 53 73 89 98 352 71 116 52 275 148 141 107 184 277 272 16 60 321 86 358 342 334 333 33 44 21 25 33 35 66 91 84 89 95 98 97 93 82 95 119
337 337 335 335 334 332 332 329 336 341 349 4 35 47 102 94 4 59 106 159 98 12 39 100 282 304 12 2 297 351 7 11 27 52 40 28 41 41 67 79 99 13 52 30 41 109 64 89 82 52 61 113 94 96 126 37 60 62 40 314 344 51 53 271 57 63 19 172 208 157 71 47 33 23 12 5 12 90 98 96 97 103 104 104 102 74 68
337 336 335 333 333 330 328 327 331 340 346 19 64 51 53 75 354 3 99 117 111 171 159 208 28 286 305 86 350 35 11 32 47 53 48 34 38 45 52 58 76 61 16 64 23 25 31 68 73 222 124 277 60 23 25 139 67 38 32 345 332 104 194 142 124 155 194 238 233 165 146 124 208 187 340 357 342 79 96 103 110 111 121 126 118 112 82
335 334 335 333 332 330 328 324 328 337 346 30 57 50 10 60 341 12 52 114 100 97 90 161 301 21 78 246 322 353 353 51 36 49 51 38 39 39 55 55 72 138 94 74 99 105 89 112 186 80 50 205 100 5 32 23 43 62 295 301 346 265 163 175 214 151 336 232 181 153 122 139 140 183 306 25 15 97 95 92 103 132 142 137 132 149 149
331 332 334 334 332 331 329 325 326 339 358 57 42 50 47 340 335 37 357 40 122 119 101 99 77 242 282 1 338 347 334 2 22 43 44 34 30 30 17 39 37 43 85 102 123 79 272 113 334 313 317 1 115 155 76 205 75 273 280 310 291 320 266 259 161 119 157 191 146 162 139 90 92 147 272 271 220 126 113 108 137 117 101 113 124 105 84
330 331 334 335 332 332 326 328 328 357 53 66 75 51 44 60 310 340 4 38 80 106 129 98 117 282 25 329 57 355 339 345 17 40 37 65 71 24 323 89 38 54 48 4 43 99 101 27 27 350 330 34 95 89 157 116 80 1 322 332 308 319 56 53 356 168 115 95 86 89 99 96 136 60 37 358 303 157 107 79 83 149 157 117 134 154 156
327 329 330 332 330 328 324 321 331 24 70 91 99 163 181 191 229 302 340 15 80 57 81 75 2 17 285 320 320 299 355 9 28 14 7 20 7 4 16 55 69 6 98 101 173 59 34 236 98 1 45 333 71 96 80 87 109 170 359 4 333 317 313 94 96 90 101 121 102 58 44 14 12 133 202 230 329 15 101 114 105 77 82 98 99 84 122
324 326 327 326 326 324 321 318 331 70 105 184 200 167 229 235 266 290 324 333 53 78 110 83 127 204 89 246 319 343 5 21 15 25 13 356 8 4 32 3 17 38 11 77 5 81 232 110 296 58 332 19 77 87 88 101 161 250 296 300 309 318 338 354 73 97 117 338 100 135 176 181 228 234 196 157 129 111 114 110 114 97 91 89 93 91 99
322 321 321 320 317 321 320 322 86 107 40 49 32 359 333 358 354 11 43 78 99 134 76 105 72 49 265 311 71 298 20 79 318 23 46 341 294 64 339 25 358 75 346 62 292 54 341 63 43 277 331 14 23 74 48 359 320 328 339 353 359 2 10 49 40 28 346 340 340 101 164 186 94 82 79 85 74 57 79 92 115 103 77 124 167 186 172
318 316 313 313 314 315 333 50 56 48 97 14 220 257 272 329 350 34 49 99 80 352 34 17 105 90 12 4 35 280 346 76 14 340 83 304 27 51 343 58 328 68 322 72 46 63 42 1 192 65 330 311 44 43 250 237 283 339 2 21 335 105 84 76 26 352 340 342 36 32 37 90 121 144 181 103 68 73 98 54 24 113 135 215 221 214 174
313 311 308 309 312 347 26 29 48 43 26 22 261 282 327 337 56 70 83 92 118 151 90 246 73 123 134 130 39 296 20 69 337 341 274 307 2 25 85 102 59 344 257 69 97 352 52 316 63 45 295 63 93 162 262 206 189 251 268 241 238 167 152 194 181 87 35 36 57 49 53 42 78 316 4 27 29 39 105 110 54 109 156 184 224 221 191
306 304 309 333 12 40 29 228 290 85 182 218 260 292 313 97 326 50 9 31 13 88 132 145 68 196 152 191 250 277 57 49 351 28 341 38 226 303 33 39 71 301 36 9 15 33 308 13 98 67 22 104 328 281 249 207 181 166 263 250 250 243 285 289 159 130 83 60 60 41 56 68 32 11 39 44 225 154 108 201 201 162 181 215 218 207 211
300 323 61 42 42 48 27 327 329 293 300 304 342 16 358 30 102 339 1 31 303 59 2 64 80 205 10 80 52 268 74 304 41 99 347 233 51 347 11 85 241 77 50 295 321 167 7 38 44 98 332 255 253 253 277 216 232 226 259 286 269 245 226 185 146 94 75 57 33 25 27 28 47 288 146 139 160 188 213 226 223 220 202 215 216 192 151
106 62 45 41 94 147 179 213 302 322 344 211 45 70 337 2 58 22 328 288 16 21 310 90 104 183 89 64 348 294 104 135 36 33 95 300 98 332 29 78 310 69 342 39 294 53 42 352 3 32 53 321 18 355 328 302 322 274 263 253 251 246 186 182 208 153 163 180 191 201 168 176 188 232 241 238 262 256 235 230 238 245 225 215 196 191 187
41 57 107 50 93 224 260 292 342 3 61 68 331 104 85 340 91 58 308 55 359 304 27 49 186 164 174 148 155 15 346 47 67 75 125 323 355 113 263 90 278 88 38 82 281 22 111 108 299 67 246 295 278 294 346 353 354 329 326 322 335 278 166 162 196 254 176 212 218 233 218 217 190 163 190 214 214 268 303 277 242 217 192 193 177 175 191
36 83 47 99 234 264 280 304 348 50 65 42 12 7 64 16 358 174 67 56 89 225 226 146 20 40 9 77 81 103 297 86 106 128 110 83 257 84 47 69 233 80 342 34 304 64 69 80 17 131 210 239 224 274 345 346 321 307 325 357 4 351 132 139 54 332 189 196 190 225 224 196 198 201 187 179 176 197 226 253 238 208 163 150 175 211 212
191 149 196 136 118 284 343 19 58 53 19 82 111 322 267 227 296 17 89 120 222 213 351 81 54 116 43 56 194 123 28 187 122 97 102 71 318 109 170 332 7 102 145 231 106 56 76 98 307 283 262 251 255 275 357 314 299 317 348 5 355 10 344 83 108 355 301 197 204 232 250 181 200 209 186 168 194 216 246 244 261 204 200 227 225 209 192
113 101 95 55 29 7 53 55 330 97 105 11 44 42 346 78 88 138 232 299 296 95 256 7 149 167 347 55 28 101 168 250 23 353 70 118 301 56 77 23 48 73 162 319 66 50 51 144 216 246 258 254 234 212 231 226 271 301 286 293 313 305 350 335 5 8 340 17 171 183 179 182 212 231 198 158 166 275 251 227 225 228 218 214 214 213 207
103 92 31 357 65 296 71 123 286 51 2 41 104 156 248 57 300 30 64 221 273 50 188 133 204 104 126 332 130 339 8 12 59 81 58 311 77 8 45 43 14 250 306 41 39 86 189 223 205 224 256 276 280 253 252 274 277 309 307 310 332 21 16 345 330 359 14 13 31 11 50 178 178 208 191 203 189 217 257 278 264 228 210 179 236 240 210
87 4 36 26 38 278 70 294 335 112 179 237 133 164 150 155 211 165 160 229 93 183 117 79 108 90 96 295 41 358 94 176 306 96 251 47 52 10 100 226 251 29 72 167 352 328 355 59 291 291 266 233 244 261 251 246 241 226 271 319 317 351 21 332 311 334 299 293 289 340 251 244 221 231 257 258 269 241 229 258 253 181 202 188 222 222 203
74 150 86 83 5 323 103 176 354 41 289 146 194 193 158 209 157 185 238 127 102 108 120 139 95 93 61 291 119 197 346 77 54 25 104 68 97 35 226 173 75 68 22 43 58 194 209 230 262 253 235 223 242 257 269 254 238 200 119 283 280 309 283 239 259 247 251 265 272 241 260 298 277 272 264 268 277 291 263 262 255 215 183 175 239 238 213
82 20 86 114 105 271 97 121 235 203 177 213 221 174 156 166 194 160 155 111 120 152 109 149 101 152 124 352 26 1 32 43 90 288 70 52 89 259 16 96 42 26 119 165 251 250 266 257 241 244 250 261 287 289 296 293 262 193 221 247 280 279 277 257 258 255 260 248 270 278 271 261 252 242 262 299 284 256 253 254 239 196 168 198 219 201 170
98 242 93 100 212 172 117 240 205 68 3 80 219 200 166 150 100 65 353 73 147 116 103 94 82 10 35 315 86 127 290 338 84 317 108 164 34 43 12 40 357 252 181 156 221 223 230 246 235 243 237 217 215 252 267 268 280 253 245 248 255 274 280 271 275 281 277 256 260 259 266 261 253 249 247 248 270 276 249 247 256 231 204 198 179 164 177
131 117 137 176 186 142 185 293 86 72 335 359 45 66 89 91 101 119 226 50 81 94 160 114 170 92 73 287 80 40 34 349 88 257 11 34 84 190 145 189 31 48 250 178 208 213 218 227 222 222 281 331 333 299 267 241 228 237 246 262 275 274 293 294 278 282 293 289 282 276 272 263 253 255 262 259 259 277 262 223 234 243 236 220 216 204 204
67 351 37 69 50 9 296 19 70 75 3 8 43 77 58 100 103 82 197 73 64 100 30 52 50 90 228 93 19 8 348 316 136 35 62 55 182 177 73 54 230 178 214 223 231 241 236 237 162 176 249 239 269 266 268 277 266 257 265 259 273 281 273 270 287 288 280 274 273 267 271 291 276 256 246 253 252 272 301 247 221 228 243 220 200 208 219
351 106 192 178 138 190 151 137 153 150 155 168 146 179 150 139 155 153 235 123 99 55 45 102 255 88 45 27 56 59 245 176 53 53 151 186 182 100 143 181 241 211 230 233 210 223 224 210 181 198 281 276 248 242 236 242 247 243 248 259 263 257 269 258 258 274 281 275 263 275 284 274 262 259 262 270 293 310 312 294 236 207 198 229 214 203 219
51 65 23 299 39 105 135 111 52 97 145 166 156 219 129 118 230 224 273 89 55 89 166 228 85 58 61 120 214 190 14 47 52 53 50 273 144 128 209 199 213 212 213 230 255 230 228 224 204 201 201 227 247 241 242 255 262 273 274 264 265 268 277 271 258 254 272 298 298 280 280 283 294 292 270 258 132 336 311 291 309 272 251 243 243 234 234